Location: Kielce
(50.8833°N, 20.6167°E)
Time: 14:01:47
(UTC+02:00)

Vanguard 1 - All Passes

Search period start: 18 April 2021 00:00
Search period end: 28 April 2021 00:00
Orbit: 648 x 3834 km, 34.3° (Epoch: 17 April)

Date Brightness Start Highest point End Pass type
(mag) Time Alt. Az. Time Alt. Az. Time Alt. Az.
18 Apr - 13:27:52 10° S 13:39:45 27° SE 13:55:48 10° E daylight
18 Apr - 15:45:01 10° SW 16:01:32 45° SSE 16:22:44 10° ESE daylight
18 Apr - 18:06:06 10° WSW 18:25:38 48° S 18:46:14 10° SE daylight
18 Apr - 20:30:24 10° W 20:49:02 33° SW 21:05:39 10° SSE visible
18 Apr - 23:03:46 10° WSW 23:09:27 12° WSW 23:14:47 10° SW visible
19 Apr - 13:47:16 10° SSW 13:59:55 32° SE 14:17:32 10° E daylight
19 Apr - 16:05:26 10° SW 16:22:16 48° S 16:43:45 10° ESE daylight
19 Apr - 18:27:01 10° W 18:46:25 45° SSW 19:06:39 10° SE daylight
19 Apr - 20:52:05 10° W 21:09:19 28° SW 21:24:51 10° S visible
20 Apr - 11:54:17 10° SSE 12:00:35 14° SE 12:08:15 10° E daylight
20 Apr - 14:07:02 10° SSW 14:20:13 36° SSE 14:39:02 10° E daylight
20 Apr - 16:25:59 10° WSW 16:43:03 48° S 17:04:40 10° ESE daylight
20 Apr - 18:48:02 10° W 19:07:09 42° SSW 19:26:51 10° SE daylight
20 Apr - 21:14:12 10° W 21:29:29 23° SW 21:43:28 10° S visible
21 Apr - 12:12:00 10° S 12:20:25 19° SE 12:31:34 10° E daylight
21 Apr - 14:27:02 10° SW 14:40:39 40° SSE 15:00:22 10° E daylight
21 Apr - 16:46:38 10° WSW 17:03:53 48° S 17:25:26 10° ESE daylight
21 Apr - 19:09:11 10° W 19:27:46 38° SSW 19:46:47 10° SSE daylight
21 Apr - 21:37:07 10° W 21:49:32 18° SW 22:01:08 10° SSW visible
22 Apr - 12:30:49 10° S 12:40:23 24° SE 12:53:52 10° E daylight
22 Apr - 14:47:16 10° SW 15:01:14 43° SSE 15:21:33 10° ESE daylight
22 Apr - 17:07:23 10° WSW 17:24:44 47° S 17:46:05 10° SE daylight
22 Apr - 19:30:32 10° W 19:48:18 33° SSW 20:06:22 10° SSE daylight
22 Apr - 22:02:00 10° WSW 22:09:28 12° SW 22:16:38 10° SW visible
23 Apr - 12:50:11 10° SSW 13:00:29 29° SE 13:15:42 10° E daylight
23 Apr - 15:07:38 10° SW 15:21:54 45° SSE 15:42:38 10° ESE daylight
23 Apr - 17:28:14 10° WSW 17:45:32 44° SSW 18:06:31 10° SE daylight
23 Apr - 19:52:08 10° W 20:08:43 28° SW 20:25:31 10° S visible
24 Apr - 10:59:18 10° SE 11:01:54 11° SE 11:04:45 10° ESE daylight
24 Apr - 13:09:55 10° SSW 13:20:44 33° SSE 13:37:15 10° E daylight
24 Apr - 15:28:08 10° WSW 15:42:39 46° S 16:03:37 10° ESE daylight
24 Apr - 17:49:12 10° W 18:06:18 41° SSW 18:26:44 10° SE daylight
24 Apr - 20:14:11 10° W 20:29:01 23° SW 20:44:02 10° S visible
25 Apr - 11:15:46 10° SSE 11:21:43 15° SE 11:29:22 10° E daylight
25 Apr - 13:29:55 10° SW 13:41:07 37° SSE 13:58:38 10° E daylight
25 Apr - 15:48:45 10° WSW 16:03:27 46° S 16:24:26 10° ESE daylight
25 Apr - 18:10:18 10° W 18:27:01 37° SSW 18:46:38 10° SSE daylight
25 Apr - 20:37:02 10° W 20:49:13 18° SW 21:01:33 10° SSW visible
26 Apr - 11:34:21 10° S 11:41:40 20° SE 11:51:55 10° E daylight
26 Apr - 13:50:07 10° SW 14:01:38 40° SSE 14:19:52 10° ESE daylight
26 Apr - 16:09:28 10° WSW 16:24:16 45° S 16:45:07 10° SE daylight
26 Apr - 18:31:35 10° W 18:47:38 32° SSW 19:06:11 10° SSE daylight
26 Apr - 21:01:51 10° WSW 21:09:19 13° SW 21:16:52 10° SSW visible
27 Apr - 11:53:38 10° SSW 12:01:45 25° SE 12:13:50 10° E daylight
27 Apr - 14:10:28 10° SW 14:22:15 42° SSE 14:40:59 10° ESE daylight
27 Apr - 16:30:16 10° WSW 16:45:06 42° SSW 17:05:34 10° SE daylight
27 Apr - 18:53:09 10° W 19:08:10 27° SW 19:25:15 10° SSE daylight
